WA7SMZ Weather Reports


Display with metric or nautical units.
time (UTC)temp
F
wind
direction
speed
MPH
gust
MPH
rain 1hr
in
rain 24hr
in
rain mn
in
humidity
%
barometer
mb
20260505193513 61 23 0.0 0.0 0.00 0.00 0.00 86 1016.2
20260505192514 61 23 0.0 0.0 0.00 0.00 0.00 87 1016.4
20260505192014 60 23 0.0 0.0 0.00 0.00 0.00 86 1016.3
20260505191512 60 23 0.0 1.0 0.00 0.00 0.00 88 1016.4
20260505190511 60 25 0.0 0.0 0.00 0.00 0.00 87 1016.3
20260505190015 60 25 0.0 5.0 0.00 0.00 0.00 88 1016.3
20260505185513 60 312 0.0 0.0 0.00 0.00 0.00 87 1016.2
20260505185015 60 312 1.0 3.0 0.00 0.00 0.00 88 1016.2
20260505184513 60 177 1.0 2.0 0.00 0.00 0.00 87 1016.2
20260505184015 60 123 0.0 1.0 0.00 0.00 0.00 88 1016.1
20260505183512 60 162 1.0 3.0 0.00 0.00 0.00 87 1016.1
20260505183014 60 138 1.0 3.0 0.00 0.00 0.00 88 1016.1
20260505182514 60 254 0.0 5.0 0.00 0.00 0.00 87 1016.1
20260505182014 60 79 1.0 5.0 0.00 0.00 0.00 89 1016.1
20260505181512 60 69 1.0 5.0 0.00 0.00 0.00 87 1016.1
20260505181014 60 173 2.0 6.0 0.00 0.00 0.00 88 1016.1
20260505180515 60 74 0.0 1.0 0.00 0.00 0.00 89 1016.1
20260505180015 60 75 0.0 2.0 0.00 0.00 0.00 88 1016.1
20260505175512 60 247 0.0 3.0 0.00 0.00 0.00 87 1016.1
20260505175015 60 240 0.0 3.0 0.00 0.00 0.00 88 1016.1
20260505174514 60 244 0.0 0.0 0.00 0.00 0.00 88 1016.1
20260505174014 60 244 0.0 0.0 0.00 0.00 0.00 90 1016.0
20260505173017 59 244 0.0 1.0 0.00 0.00 0.00 89 1016.0
20260505172014 59 181 0.0 3.0 0.00 0.00 0.00 90 1015.8
20260505171014 59 186 1.0 5.0 0.00 0.00 0.00 91 1015.9
20260505170513 59 246 1.0 2.0 0.00 0.00 0.00 91 1015.9
20260505170013 58 172 0.0 3.0 0.00 0.00 0.00 93 1015.9
20260505165514 58 116 0.0 3.0 0.00 0.00 0.00 92 1015.9
20260505165016 58 188 1.0 3.0 0.00 0.00 0.00 92 1015.9
20260505164513 58 161 1.0 2.0 0.00 0.00 0.00 92 1016.0
20260505163016 58 148 0.0 2.0 0.00 0.00 0.00 92 1015.9
20260505162515 58 169 1.0 1.0 0.00 0.00 0.00 92 1015.9
20260505162013 58 187 0.0 1.0 0.00 0.00 0.00 93 1015.9
20260505161515 58 185 1.0 2.0 0.00 0.00 0.00 93 1015.8
20260505161017 58 171 0.0 1.0 0.00 0.00 0.00 94 1015.8
20260505160512 58 165 0.0 2.0 0.00 0.00 0.00 94 1015.8
20260505153016 56 100 0.0 0.0 0.00 0.00 0.00 96 1015.8
20260505152513 56 100 0.0 0.0 0.00 0.00 0.00 97 1015.8
20260505152016 56 100 0.0 0.0 0.00 0.00 0.00 97 1015.8
20260505151514 56 100 0.0 0.0 0.00 0.00 0.00 97 1015.7
20260505151016 56 100 0.0 0.0 0.00 0.00 0.00 97 1015.8
20260505150512 56 100 0.0 0.0 0.00 0.00 0.00 97 1015.7
20260505140513 55 100 0.0 0.0 0.00 0.00 0.00 98 1015.3
20260505124015 55 144 0.0 0.0 0.00 0.00 0.00 97 1014.7
20260505123514 55 144 0.0 0.0 0.00 0.00 0.00 97 1014.7
20260505123014 55 144 0.0 0.0 0.00 0.00 0.00 97 1014.7
20260505122514 55 144 0.0 0.0 0.00 0.00 0.00 97 1014.6
20260505122014 55 144 0.0 0.0 0.00 0.00 0.00 97 1014.7
20260505121513 55 144 0.0 0.0 0.00 0.00 0.00 97 1014.6
20260505121016 55 144 0.0 0.0 0.00 0.00 0.00 97 1014.7
20260505120513 55 144 0.0 0.0 0.00 0.00 0.00 97 1014.6
20260505120013 55 144 0.0 0.0 0.00 0.00 0.00 97 1014.6
20260505115513 55 144 0.0 0.0 0.00 0.00 0.00 97 1014.5
20260505114513 55 144 0.0 0.0 0.00 0.00 0.00 98 1014.5
20260505114014 55 144 0.0 0.0 0.00 0.00 0.00 98 1014.5
20260505113015 55 127 0.0 1.0 0.00 0.00 0.00 98 1014.5
20260505112513 55 148 0.0 1.0 0.00 0.00 0.00 98 1014.5
20260505112016 55 151 0.0 2.0 0.00 0.00 0.00 98 1014.5
20260505111014 55 174 0.0 0.0 0.00 0.00 0.00 98 1014.5
20260505110511 55 174 0.0 0.0 0.00 0.00 0.00 98 1014.4
20260505102014 55 174 0.0 0.0 0.00 0.00 0.00 98 1014.2
20260505101014 55 174 0.0 0.0 0.00 0.00 0.00 98 1014.1
20260505100515 55 174 0.0 0.0 0.00 0.00 0.00 98 1014.2
20260505100014 55 174 0.0 0.0 0.00 0.00 0.00 98 1014.2
20260505095513 55 174 0.0 0.0 0.00 0.00 0.00 98 1014.1
20260505095015 55 174 0.0 0.0 0.00 0.00 0.00 98 1014.1
20260505094514 55 174 0.0 0.0 0.00 0.00 0.00 97 1014.1
20260505094015 55 174 0.0 0.0 0.00 0.00 0.00 97 1014.1
20260505093512 55 174 0.0 0.0 0.00 0.00 0.00 97 1014.0
20260505093015 55 174 0.0 0.0 0.00 0.00 0.00 97 1014.0
20260505092513 55 174 0.0 1.0 0.00 0.00 0.00 97 1014.0
20260505092015 55 161 0.0 0.0 0.00 0.00 0.00 97 1014.0
20260505091512 55 161 0.0 2.0 0.00 0.00 0.00 97 1014.0
20260505091015 55 202 0.0 0.0 0.00 0.00 0.00 97 1014.0
20260505090513 55 202 0.0 0.0 0.00 0.00 0.00 96 1013.9
20260505090013 55 202 0.0 0.0 0.00 0.00 0.00 96 1013.9
20260505085513 55 202 0.0 0.0 0.00 0.00 0.00 96 1013.9
20260505084016 55 202 0.0 2.0 0.00 0.00 0.00 96 1013.7
20260505083513 55 226 0.0 2.0 0.00 0.00 0.00 96 1013.8
20260505083016 55 226 1.0 3.0 0.00 0.00 0.00 96 1013.9
20260505082016 55 234 1.0 3.0 0.00 0.00 0.00 96 1013.8
20260505081514 55 238 2.0 5.0 0.00 0.00 0.00 96 1013.8
20260505081017 55 225 1.0 3.0 0.00 0.00 0.00 96 1013.8
20260505080512 55 198 1.0 2.0 0.00 0.00 0.00 96 1013.8
20260505080011 55 270 0.0 0.0 0.00 0.00 0.00 96 1013.8
20260505075512 55 270 0.0 0.0 0.00 0.00 0.00 96 1013.8
20260505075015 55 270 0.0 3.0 0.00 0.00 0.00 96 1013.8
20260505074514 55 216 0.0 2.0 0.00 0.00 0.00 96 1013.7
20260505074015 55 235 1.0 5.0 0.00 0.00 0.00 97 1013.7
20260505073511 55 241 0.0 0.0 0.00 0.00 0.00 97 1013.7
20260505073016 55 241 1.0 3.0 0.00 0.00 0.00 97 1013.6
20260505072515 55 239 1.0 3.0 0.00 0.00 0.00 97 1013.6
20260505072016 55 242 0.0 2.0 0.00 0.00 0.00 97 1013.5
20260505071513 54 223 0.0 0.0 0.00 0.00 0.00 97 1013.6
20260505070513 55 202 0.0 0.0 0.00 0.00 0.00 97 1013.5
20260505070014 55 202 0.0 2.0 0.00 0.00 0.00 97 1013.5
20260505065514 54 213 1.0 3.0 0.00 0.00 0.00 97 1013.4
20260505065016 54 171 1.0 3.0 0.00 0.00 0.00 97 1013.5
20260505064514 54 222 0.0 3.0 0.00 0.00 0.00 97 1013.4
20260505064018 54 233 2.0 2.0 0.00 0.00 0.00 97 1013.4
20260505063513 54 224 1.0 2.0 0.00 0.00 0.00 97 1013.4
20260505063016 54 220 1.0 3.0 0.00 0.00 0.00 97 1013.4
20260505062513 54 200 1.0 2.0 0.00 0.00 0.00 98 1013.4
20260505062014 54 235 1.0 3.0 0.00 0.00 0.00 98 1013.4
20260505061514 54 233 1.0 3.0 0.00 0.00 0.00 98 1013.4
20260505061015 54 222 0.0 0.0 0.00 0.00 0.00 98 1013.3
20260505060515 54 222 0.0 0.0 0.00 0.00 0.00 98 1013.3
20260505060014 54 222 0.0 0.0 0.00 0.00 0.00 97 1013.3
20260505055512 54 222 0.0 0.0 0.00 0.00 0.00 97 1013.4
20260505055015 54 222 0.0 0.0 0.00 0.00 0.00 97 1013.3
20260505054512 54 222 0.0 0.0 0.00 0.00 0.00 97 1013.3
20260505053513 54 222 0.0 0.0 0.00 0.00 0.00 97 1013.2
20260505053015 54 222 0.0 0.0 0.00 0.00 0.00 97 1013.2
20260505052520 54 222 0.0 0.0 0.00 0.00 0.00 97 1013.2
20260505052017 54 222 0.0 0.0 0.00 0.00 0.00 96 1013.1
20260505051515 54 222 0.0 0.0 0.00 0.00 0.00 96 1013.1
20260505051015 55 222 0.0 0.0 0.00 0.00 0.00 96 1013.1
20260505050513 55 222 0.0 0.0 0.00 0.00 0.00 96 1013.0
20260505041512 56 183 0.0 2.0 0.00 0.00 0.00 95 1012.3
20260505041014 57 240 0.0 0.0 0.00 0.00 0.00 95 1012.2
20260505040517 57 240 0.0 0.0 0.00 0.00 0.00 94 1012.1
20260505035513 58 150 0.0 0.0 0.00 0.00 0.00 93 1011.9
20260505035016 58 150 0.0 0.0 0.00 0.00 0.00 93 1011.9
20260505034511 58 150 0.0 0.0 0.00 0.00 0.00 92 1011.8
20260505033513 59 185 1.0 2.0 0.00 0.00 0.00 91 1011.7
20260505033014 60 215 0.0 0.0 0.00 0.00 0.00 90 1011.6
20260505032515 60 215 0.0 0.0 0.00 0.00 0.00 89 1011.5
20260505032015 61 215 0.0 0.0 0.00 0.00 0.00 88 1011.3
20260505031015 62 186 0.0 0.0 0.00 0.00 0.00 87 1011.1
20260505030511 62 186 0.0 1.0 0.00 0.00 0.00 86 1011.1
20260505030014 63 241 0.0 0.0 0.00 0.00 0.00 85 1011.0
20260505025512 63 241 0.0 0.0 0.00 0.00 0.00 84 1011.0
20260505024512 64 242 0.0 3.0 0.00 0.00 0.00 83 1010.8
20260505024014 64 228 0.0 2.0 0.00 0.00 0.00 82 1010.8
20260505023514 64 195 0.0 2.0 0.00 0.00 0.00 82 1010.8
20260505023016 65 220 1.0 3.0 0.00 0.00 0.00 82 1010.8
20260505022514 65 210 1.0 3.0 0.00 0.00 0.00 82 1010.7
20260505022014 65 231 2.0 3.0 0.00 0.00 0.00 81 1010.6
20260505021512 66 228 2.0 6.0 0.00 0.00 0.00 80 1010.7
20260505021015 67 235 1.0 5.0 0.00 0.00 0.00 79 1010.6
20260505020513 67 224 1.0 3.0 0.00 0.00 0.00 77 1010.6
20260505020012 68 230 0.0 3.0 0.00 0.00 0.00 77 1010.6
20260505015513 68 216 1.0 5.0 0.00 0.00 0.00 76 1010.6
20260505015014 68 229 2.0 5.0 0.00 0.00 0.00 76 1010.6
20260505014514 69 306 1.0 5.0 0.00 0.00 0.00 75 1010.6
20260505014014 69 259 2.0 5.0 0.00 0.00 0.00 74 1010.6
20260505013513 70 284 2.0 8.0 0.00 0.00 0.00 74 1010.6
20260505012514 70 244 1.0 5.0 0.00 0.00 0.00 74 1010.7
20260505011514 71 231 1.0 7.0 0.00 0.00 0.00 73 1010.8
20260505011014 71 239 1.0 3.0 0.00 0.00 0.00 73 1010.8
20260505010513 71 217 2.0 5.0 0.00 0.00 0.00 72 1010.8
20260505005511 72 231 2.0 6.0 0.00 0.00 0.00 72 1010.8
20260505005014 72 238 2.0 3.0 0.00 0.00 0.00 72 1010.8
20260505004016 72 213 1.0 2.0 0.00 0.00 0.00 72 1010.8
20260505003513 72 211 1.0 3.0 0.00 0.00 0.00 73 1010.8
20260505003014 72 179 3.0 6.0 0.00 0.00 0.00 71 1010.8
20260505002514 73 186 2.0 5.0 0.00 0.00 0.00 71 1010.8
20260505002016 73 210 1.0 5.0 0.00 0.00 0.00 70 1010.8
20260505001513 73 223 3.0 6.0 0.00 0.00 0.00 70 1010.9
20260505001016 73 274 0.0 3.0 0.00 0.00 0.00 72 1010.9
20260505000513 73 258 1.0 5.0 0.00 0.00 0.00 70 1010.9
20260504235514 73 285 0.0 5.0 0.00 0.00 0.00 70 1011.0
20260504235014 73 222 1.0 7.0 0.00 0.00 0.00 73 1011.0
20260504234512 72 229 2.0 5.0 0.00 0.00 0.00 73 1011.0
20260504233514 72 182 2.0 3.0 0.00 0.00 0.00 73 1011.0
20260504233016 71 238 1.0 5.0 0.00 0.00 0.00 78 1011.0
20260504232515 71 182 3.0 5.0 0.00 0.00 0.00 78 1011.1
20260504232016 71 183 2.0 6.0 0.00 0.00 0.00 78 1011.1
20260504231514 71 175 2.0 7.0 0.00 0.00 0.00 80 1011.2
20260504231017 71 162 1.0 7.0 0.00 0.00 0.00 81 1011.2
20260504230512 71 158 2.0 6.0 0.00 0.00 0.00 79 1011.3
20260504230012 71 151 3.0 7.0 0.00 0.00 0.00 79 1011.4
20260504225517 71 169 4.0 6.0 0.00 0.00 0.00 79 1011.4
20260504224513 70 138 2.0 6.0 0.00 0.00 0.00 79 1011.6
20260504224015 70 196 2.0 7.0 0.00 0.00 0.00 81 1011.6
20260504223515 70 149 2.0 8.0 0.00 0.00 0.00 80 1011.7
20260504223015 70 141 3.0 7.0 0.00 0.00 0.00 80 1011.8
20260504222513 70 201 3.0 6.0 0.00 0.00 0.00 80 1012.0
20260504221514 70 198 3.0 6.0 0.00 0.00 0.00 81 1012.0
20260504221013 69 145 3.0 6.0 0.00 0.00 0.00 79 1012.1
20260504220514 69 157 2.0 7.0 0.00 0.00 0.00 81 1012.1
20260504220012 69 278 2.0 8.0 0.00 0.00 0.00 80 1012.2
20260504215514 69 130 4.0 8.0 0.00 0.00 0.00 80 1012.2
20260504215015 69 157 2.0 5.0 0.00 0.00 0.00 81 1012.2
20260504214516 69 166 3.0 6.0 0.00 0.00 0.00 82 1012.2
20260504213016 67 166 2.0 5.0 0.00 0.00 0.00 83 1012.4
20260504212514 67 168 4.0 7.0 0.00 0.00 0.00 81 1012.4
20260504211514 67 130 3.0 7.0 0.00 0.00 0.00 81 1012.6
20260504211013 68 155 3.0 7.0 0.00 0.00 0.00 82 1012.6
20260504210012 67 140 4.0 8.0 0.00 0.00 0.00 81 1012.8
20260504205512 67 214 1.0 5.0 0.00 0.00 0.00 80 1012.9
20260504204514 66 211 2.0 6.0 0.00 0.00 0.00 83 1012.9
20260504203514 66 319 0.0 3.0 0.00 0.00 0.00 82 1013.0
20260504203013 66 237 2.0 6.0 0.00 0.00 0.00 82 1013.1
20260504202514 65 153 3.0 6.0 0.00 0.00 0.00 85 1013.1
20260504202014 65 137 2.0 5.0 0.00 0.00 0.00 83 1013.2
20260504201512 65 245 2.0 6.0 0.00 0.00 0.00 82 1013.2
20260504201013 65 281 0.0 5.0 0.00 0.00 0.00 85 1013.2
20260504200514 64 231 1.0 2.0 0.00 0.00 0.00 85 1013.2
20260504200012 64 91 2.0 3.0 0.00 0.00 0.00 85 1013.2
20260504195514 64 235 1.0 3.0 0.00 0.00 0.00 86 1013.2
20260504195014 63 78 1.0 3.0 0.00 0.00 0.00 86 1013.3
20260504194513 63 173 1.0 5.0 0.00 0.00 0.00 86 1013.3
20260504194013 63 157 1.0 5.0 0.00 0.00 0.00 86 1013.4